This is the latest recevied weather packets stored in our database for station/object DL6DJ-15. If no packets are shown the sender has not sent any weather packets the latest 10 day(s).
| Time | Temp. | Humidity | Pressure | Rain* | Wind** | Luminosity | Snow |
|---|---|---|---|---|---|---|---|
| 1777985479 | 29.44° C | 22% | 1006.6 hPa | - | - | - | - |
| 1777985179 | 28.89° C | 25% | 1006.6 hPa | - | - | - | - |
| 1777984878 | 28.33° C | 24% | 1006.7 hPa | - | - | - | - |
| 1777984578 | 27.78° C | 24% | 1006.7 hPa | - | - | - | - |
| 1777984277 | 27.78° C | 25% | 1006.8 hPa | - | - | - | - |
| 1777983977 | 27.78° C | 25% | 1006.8 hPa | - | - | - | - |
| 1777983677 | 27.78° C | 25% | 1006.8 hPa | - | - | - | - |
| 1777983376 | 27.22° C | 24% | 1006.9 hPa | - | - | - | - |
| 1777983076 | 27.78° C | 24% | 1007 hPa | - | - | - | - |
| 1777982776 | 27.78° C | 22% | 1007 hPa | - | - | - | - |
| 1777982475 | 27.78° C | 23% | 1007.1 hPa | - | - | - | - |
| 1777982175 | 27.78° C | 23% | 1007.1 hPa | - | - | - | - |
| 1777981874 | 29.44° C | 22% | 1007.2 hPa | - | - | - | - |
| 1777981574 | 30° C | 21% | 1007.3 hPa | - | - | - | - |
| 1777981273 | 29.44° C | 20% | 1007.3 hPa | - | - | - | - |
| 1777980973 | 30.56° C | 21% | 1007.2 hPa | - | - | - | - |
| 1777980673 | 28.89° C | 23% | 1007.4 hPa | - | - | - | - |
| 1777980373 | 28.89° C | 22% | 1007.5 hPa | - | - | - | - |
| 1777980072 | 28.89° C | 22% | 1007.6 hPa | - | - | - | - |
| 1777979772 | 28.33° C | 23% | 1007.5 hPa | - | - | - | - |
| 1777979471 | 29.44° C | 21% | 1007.4 hPa | - | - | - | - |
| 1777979171 | 29.44° C | 21% | 1007.7 hPa | - | - | - | - |
| 1777978870 | 28.33° C | 23% | 1007.6 hPa | - | - | - | - |
| 1777978570 | 28.89° C | 22% | 1007.7 hPa | - | - | - | - |
| 1777978270 | 29.44° C | 23% | 1007.8 hPa | - | - | - | - |
* Rain since midnight (hover to see other rain measurements)
** Current wind speed in m/s (hover to see current wind gust speed)